KINEIS-3D

Last updated on Thu Aug 20 2026 00:02:52 GMT+0000 (Coordinated Universal Time)

1 61221U 24172B 26231.20212343 .00001486 00000+0 24294-3 0 9991 2 61221 98.0420 320.4396 0000667 43.7602 316.3658 14.72304992102629
UTC large
Height (km)
Speed (km/s)
/
Latitude / Longitude
Inclination (degrees)
Orbital Period (minutes)
Azimuth
Elevation
Range (km)
Doppler Factor

Next 0 passes for location: London (51.5072 / 0.1276)

No passes found over London.
KINEIS-3D